Regional Weather Roundup
Issued by NWS

Home | Current Version | Previous Version | Text Only | Print | Product List | Glossary On
Versions: 1 2 3 4 5 6 7 8 9 10 11 12 13 14 15 16 17 18 19 20 21 22 23 24 25 26 27 28 29 30 31 32 33 34 35 36 37 38 39 40 41 42 43 44 45 46 47 48 49 50
000
ASUS43 KMKX 020559
RWRWI

WISCONSIN REGIONAL WEATHER ROUNDUP
NATIONAL WEATHER SERVICE MILWAUKEE/SULLIVAN WI
1200 AM CST MON MAR 02 2015

NOTE: "FAIR" INDICATES FEW OR NO CLOUDS BELOW 12,000 FEET WITH NO
SIGNIFICANT WEATHER AND/OR OBSTRUCTIONS TO VISIBILITY.

WIZ001-002-006>008-014>016-023>028-020700-
NORTHWEST WISCONSIN

CITY           SKY/WX    TMP DP  RH WIND       PRES   REMARKS
SUPERIOR ARPT  CLEAR     15   6  68 W8        30.34R WCI   4
ASHLAND        CLOUDY    19   5  54 NW12G24   30.30R WCI   7
6HR MIN TEMP:  18; 6HR MAX TEMP:  22;

HAYWARD        CLEAR     16   6  65 VRB6      30.29R WCI   7
6HR MIN TEMP:  16; 6HR MAX TEMP:  21;

SIREN          CLEAR     15   8  73 NW10      30.34R WCI   2
CUMBERLAND     CLEAR     18   9  68 NW13G21   30.30R WCI   4
RICE LAKE      CLEAR     19  10  68 W13G18    30.32R WCI   5
CHETEK         CLEAR     18   9  68 W6        30.31R WCI  10
LADYSMITH      CLEAR     18   9  67 W13       30.27R WCI   4
EAU CLAIRE     NOT AVBL
MENOMONIE      CLEAR     21  11  65 W16G28    30.33R WCI   7
NEW RICHMOND   PTCLDY    18  10  70 NW10      30.36R WCI   7
OSCEOLA        CLOUDY    20  11  69 NW12G20   30.39R WCI   8
$$

WIZ003>005-009-010-017-018-020700-
NORTH CENTRAL WISCONSIN

CITY           SKY/WX    TMP DP  RH WIND       PRES   REMARKS
MANITOWISH WTR FLURRIES  17  10  74 NW13      30.16R WCI   3
ARBOR VITAE    CLOUDY    19  10  66 NW12G21   30.15R WCI   7
WOODRUFF       CLOUDY    19  10  66 NW12G21   30.15R WCI   7
RHINELANDER    PTCLDY    11   3  70 W10       30.17R WCI  -3
6HR MIN TEMP:  11; 6HR MAX TEMP:  17;

EAGLE RIVER    PTCLDY    16   6  63 W8        30.13R WCI   6
LAND O LAKES   LGT SNOW  17  12  79 NW8       30.13R WCI   7
PHILLIPS       MOCLDY    15   7  72 W3        30.21R
TOMAHAWK       CLEAR     14   6  69 CALM      30.20R
MEDFORD        CLEAR     13   6  73 W7        30.22R WCI   3
MERRILL        CLEAR     13   5  71 W7        30.21R WCI   3
$$

WIZ029-030-035-036-043>047-020700-
CENTRAL WISCONSIN

CITY           SKY/WX    TMP DP  RH WIND       PRES   REMARKS
WAUSAU         CLEAR     14   5  67 NW8       30.22R WCI   3
6HR MIN TEMP:  14; 6HR MAX TEMP:  20;

MOSINEE        CLEAR     16   9  73 W8        30.24R WCI   5
MARSHFIELD     CLEAR     14   6  70 W8        30.26R WCI   3
6HR MIN TEMP:  14; 6HR MAX TEMP:  20;

STEVENS POINT  CLEAR     13   6  72 W6        30.25S WCI   4
WAUPACA        CLEAR     19   8  62 W6        30.27R WCI  11
WAUTOMA        NOT AVBL
WISC RAPIDS    CLEAR     14   5  67 W6        30.29R WCI   5
6HR MIN TEMP:  14; 6HR MAX TEMP:  23;

CAMP DOUGLAS   NOT AVBL
$$

WIZ011>013-019>022-031-037>040-048>050-020700-
NORTHEAST WISCONSIN

CITY           SKY/WX    TMP DP  RH WIND       PRES   REMARKS
ANTIGO         CLEAR     14   5  68 W14       30.17S WCI  -1
SHAWANO        CLEAR     18   7  60 W3        30.24R
OCONTO         CLEAR     16   6  65 W9        30.22R WCI   4
STURGEON BAY   CLEAR     18   5  57 W13       30.22R WCI   4
6HR MIN TEMP:  18; 6HR MAX TEMP:  23;

GREEN BAY      CLEAR     17   7  64 SW7       30.25R WCI   8
6HR MIN TEMP:  17; 6HR MAX TEMP:  23;

MANITOWOC      NOT AVBL
APPLETON       CLEAR     16   5  62 W8        30.26R WCI   5
CLINTONVILLE   CLEAR     18   7  62 W6        30.24R WCI   9
OSHKOSH        CLEAR     17   6  62 SW5       30.28R WCI  10
6HR MIN TEMP:  17; 6HR MAX TEMP:  24;

$$

WIZ032>034-041-042-053>061-020700-
SOUTHWEST WISCONSIN

CITY           SKY/WX    TMP DP  RH WIND       PRES   REMARKS
LA CROSSE      CLEAR     10   4  76 CALM      30.37R
6HR MIN TEMP:  10; 6HR MAX TEMP:  23;

SPARTA         CLEAR      4   1  85 CALM      30.34R
VIROQUA        CLEAR     16  10  78 W6        30.31R WCI   7
BOSCOBEL       FAIR      11   5  77 SW8       30.39R WCI  -1
6HR MIN TEMP:  11; 6HR MAX TEMP:  23;

PRAIRIE DU CHI FAIR      17   8  68 NW9       30.39R WCI   5
PLATTEVILLE    CLEAR     11   6  83 SW6       30.35R WCI   1
$$

WIZ056-057-062-063-064-067-068-020700-
SOUTH CENTRAL WISCONSIN

CITY           SKY/WX    TMP DP  RH WIND       PRES   REMARKS
REEDSBURG      CLEAR     15   8  72 SW3       30.31R
BARABOO/DELLS  CLEAR     16   8  68 W7        30.30R WCI   7
LONE ROCK      NOT AVBL
MINERAL POINT  CLEAR     14   9  79 W7        30.33R WCI   4
MADISON        CLEAR     15   5  64 SW5       30.33R WCI   8
6HR MIN TEMP:  15; 6HR MAX TEMP:  25;

MIDDLETON      CLEAR     18   7  62 W8        30.32R WCI   8
WATERTOWN      CLEAR     16   7  67 SW5       30.31R WCI   9
MONROE         CLEAR     16  10  79 W14       30.32S WCI   1
JANESVILLE     CLEAR     18   9  68 CALM      30.34S
$$

WIZ051-052-058>065-066-070>072-020700-
SOUTHEAST WISCONSIN

CITY           SKY/WX    TMP DP  RH WIND       PRES   REMARKS
MILWAUKEE      CLEAR     21   6  52 W12       30.32R WCI   9
6HR MIN TEMP:  21; 6HR MAX TEMP:  25;

WAUKESHA       CLEAR     18   7  62 W9        30.31R WCI   6
MILWAUKEE/TIMM CLEAR     19   7  58 W12       30.31R WCI   7
RACINE         CLEAR     19   7  59 W10       30.33R WCI   7
6HR MIN TEMP:  19; 6HR MAX TEMP:  23;

BURLINGTON     CLEAR     15   5  65 W8        30.33R WCI   4
KENOSHA        CLEAR     16   6  65 W12       30.32R WCI   3
6HR MIN TEMP:  16; 6HR MAX TEMP:  22;

FOND DU LAC    CLEAR     17   6  62 SW8       30.29R WCI   7
6HR MIN TEMP:  17; 6HR MAX TEMP:  26;

SHEBOYGAN      CLEAR     19   7  59 W10       30.27R WCI   7
6HR MIN TEMP:  19; 6HR MAX TEMP:  26;

WEST BEND      CLEAR     19   7  58 W13       30.28R WCI   7
JUNEAU         CLEAR     11   5  74 SW6       30.31R WCI   2
$$

LSZ147-162-020700-
LAKE SUPERIOR

STATION/POSITION TIME  TEMP    WIND        PRES    WAVE
                       AIR SEA DIR/SP/G            HT/PER
                 (UTC) (F)     (DEG/KT/KT) (MB)    (FT/S)
DEVILS ISLAND    0500   20     300/ 23/ 29 1025.3R
PORT WING        0523   20     300/ 17/ 25 1026.1R
SAXON HARBOR     0520   21     290/ 10/ 23 1024.4R
$$

LMZ867-665-643>646-020700-
LAKE MICHIGAN

STATION/POSITION TIME  TEMP    WIND        PRES    WAVE
                       AIR SEA DIR/SP/G            HT/PER
                 (UTC) (F)     (DEG/KT/KT) (MB)    (FT/S)
NORTHPORT PIER   0503   20     280/  7/ 15 1021.7R
SISTER BAY       0513   16     300/ 10/ 12   N/A
KEWAUNEE LAKESHO 0500          290/ 11/ 16   N/A
SHEBOYGAN LAKESH 0500   22     270/ 10/ 13 1026.0R
PORT WASHINGTON  0540   21     270/  6/ 13 1026.4R
MILWAUKEE LAKESH 0500   22     280/ 13/ 17   N/A
KENOSHA   LAKESH 0500   20     280/  9/ 16 1026.4R
$$

TC  - TEMPERATURE IN CELSIUS
VSB - VISIBILITY IN STATUTE MILES
WCI - WIND CHILL INDEX
HX  - HEAT INDEX



USA.gov is the U.S. government's official web portal to all federal, state and local government web resources and services.